星链-4517 (STARLINK-4517 )

导读

STARLINK-4517是美国太空探索技术公司(SpaceX)研发运营的星链(Starlink)项目卫星,于2022年8月10日发射入轨,属于星链低轨互联网星座组成部分,运行在近地轨道,轨道近地点约355公里、远地点约357公里,轨道倾角约43度,旨在为全球尤其是偏远区域提供高速低延迟的互联网接入服务,助力缩小全球数字鸿沟。

Basic Information
目录编号:
53390
目录名称:
STARLINK-4517
国际标识:
2022-097C
轨道中心:
EARTH
卫星名称:
星链-4517
卫星全名:
星链-4517 (STARLINK-4517 )
卫星状态:
在轨 (已飞行1486 天)
发射日期:
2022-08-10 UTC
国别 :
美国 (US)
星等 :
--
Orbit Information
数据来源 国际轨道数据
星历时间: 2026-09-04T09:53:13+0800
8小时前
查看轨道信息
半长轴: 6837.882km
偏心率: 0.0000782
轨道倾角: 53.161°
近地点辐角 86.236°
升交点赤经 38.972°
平近点角 273.873°
近地点: 459.21km
远地点: 460.28km
周期: 93.787分钟
每日圈数: 15.353961
Detailed Information
固有亮度:
5
最大亮度:
2.5
卫星平台:
Starlink v1.5
覆盖范围:
全球
运营商:
太空探索技术公司
运营商所在国:
美国
制造商(研发单位):
太空探索技术公司
制造商所在国:
美国
使用方式:
暂无
Satellite Introduction
星链(Starlink)计划是由太空探索技术公司(SpaceX)提出的一个巨型低轨卫星互联网星座项目,计划在2019年至2024年间在太空搭建由约1.2万颗卫星组成的“星链”网络,其中1584颗将部署在地球上空550千米处的近地轨道,并从2020年开始工作。该卫星仍在工作。
2D Orbit Map
3D Orbit Map
Orbit Altitude Analysis Chart
Orbit Inclination Analysis Chart
Orbit Comprehensive Analysis Chart
View Comprehensive Chart
Conjunction Data List
Event ID Objects TCA Miss Dist (km) Collision Risk Probability Collision Risk Index (CRI) Action
CDM_260830-173605-339006-190121
OBJECT H (61901)
2026-08-30T
17:36:40+0000
1.560 km
极远距离
5.073015E-6 低风险 0.49
CDM_260830-184205-339005-893121
2026-08-30T
18:42:22+0000
2.898 km
极远距离
1.24111E-6 低风险 0.37
CDM_260901-065605-339006-805621
2026-09-01T
06:56:32+0000
2.956 km
极远距离
1.061689E-6 低风险 0.36
CDM_260904-113705-339006-344121
2026-09-04T
11:37:55+0000
2.794 km
极远距离
4.471317E-7 极低风险 0.28
CDM_260901-162805-339006-521521
2026-09-01T
16:28:45+0000
2.780 km
极远距离
2.994544E-7 极低风险 0.25